Regional Weather Roundup
Issued by NWS Charleston, SC

Current Version | Previous Version | Graphics & Text | Print | Product List | Glossary On
Versions: 1 2 3 4 5 6 7 8 9 10 11 12 13 14 15 16 17 18 19 20 21 22 23 24 25 26 27 28 29 30 31 32 33 34 35 36 37 38 39 40 41 42 43 44 45 46 47 48 49 50
000
ASUS42 KCHS 281926
RWRCHS

REGIONAL WEATHER ROUNDUP
NATIONAL WEATHER SERVICE CHARLESTON SC
300 PM EDT SAT MAR 28 2015

NOTE: "FAIR" INDICATES FEW OR NO CLOUDS BELOW 12,000 FEET WITH NO
SIGNIFICANT WEATHER AND/OR OBSTRUCTIONS TO VISIBILITY.

NOT ALL STATIONS ARE QUALITY CONTROLLED BY THE NATIONAL
WEATHER SERVICE. USE DATA WITH CAUTION...ESPECIALLY
DEWPOINT OBSERVATIONS.

SCZ027-030-031-034>040-042>050-282000-
...SOUTHEAST SOUTH CAROLINA...

CITY           SKY/WX    TMP DP  RH WIND       PRES   REMARKS
N CHARLESTON   MOSUNNY   57  25  29 W13G22    30.06F
WATERFRONT PRK   N/A     55 N/A N/A W9G20       N/A
MOUNT PLEASANT FAIR      57  30  35 W9G18     30.05F
PINOPOLIS        N/A     54  32  43 NW7       29.97F
MONCKS CORNER  MOCLDY    55  28  35 NW6       30.05S
SUMMERVILLE    FAIR      54  30  40 W12G17    30.07S
BEAUFORT MCAS  SUNNY     57  26  30 W13G22    30.07F
BEAUFORT ARPT  FAIR      57  32  38 NW16G22   30.06F
HILTON HEAD IS MOSUNNY  N/A N/A N/A W10G21    30.08F
WALTERBORO     CLEAR     55  27  33 W12G21    30.07F
ALLENDALE      FAIR      57  23  26 W9G17     30.06F

...SOUTHERN MIDLANDS AND PEE DEE...

CITY           SKY/WX    TMP DP  RH WIND       PRES   REMARKS
GEORGETOWN     NOT AVBL
KINGSTREE      NOT AVBL
ORANGEBURG     MOSUNNY   54  26  34 W15       30.07F
BARNWELL       FAIR      57  25  28 SW12G18   30.08F
AIKEN          FAIR      52  23  32 W9        30.10F
MANNING        FAIR     N/A N/A N/A W8G17     30.06F
COLUMBIA       MOSUNNY   54  23  30 W18       30.07S
SUMTER         MOSUNNY   53  23  30 SW13      30.03F
FLORENCE       MOSUNNY   54  24  31 W14G20    30.04F
MYRTLE BEACH   PTSUNNY   54  30  40 NW14G20   30.06S
N MYRTLE BEACH PTSUNNY   53  29  39 NW7G16    30.03S

$$

GAZ063-065-086>088-099>101-113>116-118-119-134>141-150-282000-
...SOUTHEAST GEORGIA...

CITY           SKY/WX    TMP DP  RH WIND       PRES   REMARKS
SAVANNAH ARPT  MOSUNNY   59  26  28 W14G23    30.08F
HUNTER AAF     SUNNY     59  32  36 W18       30.05F
FORT STEWART   SUNNY     58  28  30 W16       30.07F
STATESBORO     SUNNY     57  28  32 W14G21    30.09F
SYLVANIA       CLEAR     57  30  35 NW18      30.08F
CLAXTON        FAIR      55  32  41 W15G25    30.10F

...CSRA...CENTRAL AND FAR SOUTHEAST GEORGIA...

CITY           SKY/WX    TMP DP  RH WIND       PRES   REMARKS
THOMSON        SUNNY     56  27  32 NW7G17    30.13F
AUGUSTA-BUSH   SUNNY     55  20  25 W14G21    30.09F
AUGUSTA-DANIEL SUNNY     55  19  24 NW14      30.09F
SWAINSBORO     FAIR      59 -17   4 NW14G23   30.10F
VIDALIA        MOSUNNY   55  32  41 N12G23    30.11F
EASTMAN        FAIR      56  26  31 W8G21     30.15F
HAZLEHURST     FAIR      57  32  38 W7G18     30.11F
ALMA           SUNNY     58  29  33 W15G24    30.13F
WAYCROSS       SUNNY     62  32  31 NW15G23   30.12F
JESUP          FAIR      61  34  36 NW14G25   30.11S
BAXLEY         FAIR      59  28  31 W15G22    30.12S
BRUNSWICK      SUNNY     61  30  31 NW13G22   30.10F
SAINT SIMONS   SUNNY     59  31  34 W12G23    30.09F

$$

SCZ027-028-034-036>038-045-046-048>050-GAZ119-141-282000-
...LAKE AND SUPPLEMENTAL COASTAL OBSERVATIONS...

STATION/POSITION TIME  TEMP    WIND        PRES    WAVE   SWELL
                       AIR SEA DIR/SP/G            HT/PER HT/PER/DIR
                 (UTC) (F)     (DEG/KT/KT) (MB)    (FT/S) (FT/S/D)
UPR LAKE MARION  NOT AVBL
WINYAH BAY       1845   53     270/  8     1016.0S
LAKE MURRAY      1800   48     260/  8/ 15 1017.9F
ACE BASIN NERRS  1800   56     250/  5     1018.0S
FORT PULASKI     1900   54 60  280/ 16/ 20 1018.7F
SAPELO ISLAND    1900   58     300/ 13     1019.0F

$$

ANZ835-935-AMZ111-154-330-350-352-354-370-450-454-472-282000-
...C-MAN AND BUOY OBSERVATIONS...

STATION/POSITION TIME  TEMP    WIND        PRES    WAVE   SWELL
                       AIR SEA DIR/SP/G            HT/PER HT/PER/DIR
                 (UTC) (F)     (DEG/KT/KT) (MB)    (FT/S) (FT/S/D)
BUOY 41004       1850   53 68  280/ 16/ 19 1017.4F   4/ 6   2/10
BUOY 41008       1850   54 61  270/ 12/ 17 1018.8F   2/ 3   2/ 70/ 7
FOLLY BEACH CMAN 1900   56     270/  7/ 11 1017.6F
CAPERS NEARSHORE NOT AVBL
FRIPP NEARSHORE  1800   54     270/ 16/ 19 1018.3F


STATION/POSITION TIME  TEMP    WIND        PRES    WAVE   SWELL
                       AIR SEA DIR/SP/G            HT/PER HT/PER/DIR
                 (UTC) (F)     (DEG/KT/KT) (MB)    (FT/S) (FT/S/D)
5E ST. MARYS GA  1821      61                N/A     3/ 3
FRYING PAN BUOY  1850   50 65  280/ 14/ 17 1017.3F   4/ 7   2/140/ 7
BUOY 41025       NOT AVBL
CAPE LOOKOUT NC  1900   49     280/ 15/ 18 1015.4F
BUOY 41002       1850   60 68  300/ 16/ 19 1015.4F  11/ 9  10/260/ 9
BUOY 41010       1820   63 75  300/ 16/ 23 1018.8F
ST AUGUSTINE FL  1900   63 61  290/ 13/ 19 1019.6F


$$



USA.gov is the U.S. government's official web portal to all federal, state and local government web resources and services.